TimeMST,TemperatureF,Dew PointF,Humidity,Sea Level PressureIn,VisibilityMPH,Wind Direction,Wind SpeedMPH,Gust SpeedMPH,PrecipitationIn,Events,Conditions,WindDirDegrees,DateUTC
12:53 AM,30.0,27.0,88,29.94,10.0,Calm,Calm,-,N/A,,Overcast,0,2012-12-13 07:53:00
1:53 AM,28.0,26.1,92,29.96,9.0,West,3.5,-,N/A,,Overcast,260,2012-12-13 08:53:00
2:53 AM,28.9,27.0,92,29.97,8.0,Calm,Calm,-,N/A,,Overcast,0,2012-12-13 09:53:00
3:53 AM,30.0,24.1,79,29.97,10.0,West,3.5,-,N/A,,Mostly Cloudy,270,2012-12-13 10:53:00
4:53 AM,30.0,23.0,75,29.96,10.0,NW,13.8,-,0.00,,Mostly Cloudy,320,2012-12-13 11:53:00
5:53 AM,26.1,23.0,88,30.01,10.0,Calm,Calm,-,N/A,,Overcast,0,2012-12-13 12:53:00
6:53 AM,27.0,21.9,81,30.02,10.0,South,4.6,-,N/A,,Partly Cloudy,190,2012-12-13 13:53:00
7:53 AM,30.0,19.9,66,30.02,10.0,SW,8.1,-,N/A,,Clear,220,2012-12-13 14:53:00
8:53 AM,30.0,19.0,64,30.03,10.0,WSW,9.2,-,N/A,,Clear,240,2012-12-13 15:53:00
9:53 AM,32.0,19.0,59,30.02,10.0,SSW,8.1,-,N/A,,Scattered Clouds,210,2012-12-13 16:53:00
10:53 AM,33.1,19.0,56,30.02,10.0,WNW,6.9,-,N/A,,Clear,300,2012-12-13 17:53:00
11:53 AM,34.0,19.9,56,29.99,10.0,West,8.1,-,N/A,,Clear,270,2012-12-13 18:53:00
12:53 PM,35.1,19.0,52,29.96,10.0,West,6.9,-,N/A,,Clear,270,2012-12-13 19:53:00
1:53 PM,33.1,19.9,59,29.96,10.0,SE,6.9,-,N/A,,Clear,130,2012-12-13 20:53:00
2:53 PM,32.0,19.9,61,29.94,10.0,SE,8.1,-,N/A,,Clear,140,2012-12-13 21:53:00
5:53 PM,26.6,17.6,69,29.79,10.0,WSW,3.5,-,N/A,,Clear,250,2012-12-14 00:53:00
6:53 PM,21.9,15.1,75,29.96,10.0,South,3.5,-,N/A,,Clear,180,2012-12-14 01:53:00
7:53 PM,23.0,15.1,72,29.95,10.0,Calm,Calm,-,N/A,,Clear,0,2012-12-14 02:53:00
8:53 PM,21.9,15.1,75,29.95,10.0,Calm,Calm,-,N/A,,Clear,0,2012-12-14 03:53:00
9:53 PM,21.9,14.0,72,29.95,10.0,SW,4.6,-,N/A,,Clear,230,2012-12-14 04:53:00
10:53 PM,19.4,12.2,74,29.78,10.0,South,4.6,-,N/A,,Clear,190,2012-12-14 05:53:00
11:53 PM,19.9,14.0,78,29.94,10.0,SSW,3.5,-,N/A,,Clear,200,2012-12-14 06:53:00